• în România
  • Lista ţărilor
  • Pe 7 zile
  • Temperatura apei
  • Hartă satelitară
  • Meteo pe hartă
  • Widget-uri
  • user-avatar
    Intrare

    Meteo pe oră la Zawtat

    Astăzi, 20 Februarie, Marţi

    Timp Temperatura Precipitaţii Vânt Presiune Umiditate
    00:00 +5°C° 0,4 mm 5 m/s 734 mmHg 91%
    01:00 +5°C° 0,4 mm 5 m/s 734 mmHg 92%
    02:00 +5°C° 0,9 mm 5 m/s 734 mmHg 93%
    03:00 +5°C° 0,9 mm 5 m/s 733 mmHg 93%
    04:00 +5°C° 0,9 mm 4 m/s 733 mmHg 94%
    05:00 +5°C° 1,1 mm 4 m/s 733 mmHg 94%
    06:00 +5°C° 1,1 mm 4 m/s 733 mmHg 94%
    07:00 +5°C° 1,1 mm 4 m/s 732 mmHg 94%
    08:00 +6°C° 1,5 mm 4 m/s 732 mmHg 95%
    09:00 +6°C° 1,5 mm 4 m/s 732 mmHg 95%
    10:00 +7°C° 1,5 mm 3 m/s 732 mmHg 95%
    11:00 +7°C° 2,2 mm 3 m/s 732 mmHg 96%
    12:00 +7°C° 2,2 mm 3 m/s 731 mmHg 96%
    13:00 +7°C° 2,2 mm 3 m/s 731 mmHg 96%
    14:00 +7°C° 0,8 mm 3 m/s 731 mmHg 96%
    15:00 +7°C° 0,8 mm 3 m/s 731 mmHg 95%
    16:00 +6°C° 0,8 mm 4 m/s 731 mmHg 95%
    17:00 +6°C° 0,5 mm 4 m/s 730 mmHg 94%
    18:00 +6°C° 0,5 mm 4 m/s 730 mmHg 93%
    19:00 +5°C° 0,5 mm 4 m/s 730 mmHg 92%
    20:00 +5°C° 0,5 mm 4 m/s 730 mmHg 91%
    21:00 +6°C° 0,5 mm 4 m/s 730 mmHg 90%
    22:00 +6°C° 0,5 mm 4 m/s 730 mmHg 89%
    23:00 +6°C° 1,4 mm 4 m/s 730 mmHg 89%

    Mâine, 21 Februarie, Miercuri

    Timp Temperatura Precipitaţii Vânt Presiune Umiditate
    00:00 +6°C° 1,4 mm 5 m/s 730 mmHg 90%
    01:00 +5°C° 1,4 mm 5 m/s 730 mmHg 90%
    02:00 +5°C° 1,4 mm 5 m/s 730 mmHg 90%
    03:00 +5°C° 1,4 mm 5 m/s 730 mmHg 91%
    04:00 +4°C° 1,4 mm 6 m/s 729 mmHg 91%
    05:00 +4°C° 0,9 mm 6 m/s 729 mmHg 91%
    06:00 +5°C° 0,9 mm 5 m/s 729 mmHg 90%
    07:00 +6°C° 0,9 mm 5 m/s 730 mmHg 90%
    08:00 +6°C° 0,5 mm 5 m/s 730 mmHg 88%
    09:00 +7°C° 0,5 mm 5 m/s 730 mmHg 86%
    10:00 +7°C° 0,5 mm 5 m/s 730 mmHg 84%
    11:00 +8°C° 0,2 mm 5 m/s 730 mmHg 83%
    12:00 +8°C° 0,2 mm 5 m/s 730 mmHg 82%
    13:00 +9°C° 0,2 mm 5 m/s 729 mmHg 80%
    14:00 +8°C° 0,2 mm 5 m/s 729 mmHg 82%
    15:00 +8°C° 0,2 mm 5 m/s 729 mmHg 83%
    16:00 +8°C° 0,2 mm 5 m/s 729 mmHg 84%
    17:00 +8°C° 0,3 mm 5 m/s 729 mmHg 84%
    18:00 +7°C° 0,3 mm 5 m/s 729 mmHg 84%
    19:00 +7°C° 0,3 mm 6 m/s 729 mmHg 84%
    20:00 +7°C° 0,4 mm 6 m/s 729 mmHg 85%
    21:00 +5°C° 0,4 mm 6 m/s 729 mmHg 85%
    22:00 +5°C° 0,4 mm 6 m/s 729 mmHg 85%
    23:00 +5°C° 1,1 mm 6 m/s 729 mmHg 86%

    Poimâine, 22 Februarie, Joi

    Timp Temperatura Precipitaţii Vânt Presiune Umiditate
    00:00 +5°C° 1,1 mm 7 m/s 730 mmHg 88%
    01:00 +5°C° 1,1 mm 7 m/s 730 mmHg 89%
    02:00 +5°C° 0,5 mm 7 m/s 730 mmHg 89%
    03:00 +5°C° 0,5 mm 6 m/s 730 mmHg 89%
    04:00 +5°C° 0,5 mm 6 m/s 730 mmHg 89%
    05:00 +5°C° 0,6 mm 6 m/s 730 mmHg 89%
    06:00 +5°C° 0,6 mm 6 m/s 730 mmHg 89%
    07:00 +5°C° 0,6 mm 6 m/s 730 mmHg 89%
    08:00 +7°C° 0,5 mm 6 m/s 730 mmHg 88%
    09:00 +6°C° 0,5 mm 7 m/s 730 mmHg 87%
    10:00 +6°C° 0,5 mm 7 m/s 731 mmHg 87%
    11:00 +8°C° 1 mm 7 m/s 730 mmHg 87%
    12:00 +8°C° 1 mm 7 m/s 730 mmHg 88%
    13:00 +7°C° 1 mm 8 m/s 730 mmHg 88%
    14:00 +8°C° 3,1 mm 7 m/s 730 mmHg 91%
    15:00 +6°C° 3,1 mm 7 m/s 730 mmHg 93%
    16:00 +7°C° 3,1 mm 6 m/s 730 mmHg 96%
    17:00 +7°C° 5,1 mm 6 m/s 730 mmHg 96%
    18:00 +7°C° 5,1 mm 5 m/s 730 mmHg 97%
    19:00 +7°C° 5,1 mm 5 m/s 730 mmHg 98%
    20:00 +7°C° 3 mm 4 m/s 731 mmHg 97%
    21:00 +7°C° 3 mm 4 m/s 731 mmHg 97%
    22:00 +8°C° 3 mm 3 m/s 732 mmHg 97%
    23:00 +8°C° 2 mm 3 m/s 732 mmHg 96%

    23 Februarie, Vineri

    Timp Temperatura Precipitaţii Vânt Presiune Umiditate
    00:00 +8°C° 2 mm 2 m/s 732 mmHg 96%
    01:00 +8°C° 2 mm 2 m/s 732 mmHg 96%
    02:00 +7°C° 1,1 mm 2 m/s 732 mmHg 95%
    03:00 +7°C° 1,1 mm 3 m/s 732 mmHg 93%
    04:00 +7°C° 1,1 mm 3 m/s 732 mmHg 92%
    05:00 +7°C° 0,9 mm 3 m/s 732 mmHg 91%
    06:00 +6°C° 0,9 mm 4 m/s 732 mmHg 91%
    07:00 +6°C° 0,9 mm 4 m/s 733 mmHg 90%
    08:00 +7°C° 0,7 mm 4 m/s 733 mmHg 90%
    09:00 +7°C° 0,7 mm 4 m/s 733 mmHg 90%
    10:00 +7°C° 0,7 mm 4 m/s 733 mmHg 89%
    11:00 +7°C° 1 mm 4 m/s 733 mmHg 90%
    12:00 +7°C° 1 mm 4 m/s 733 mmHg 91%
    13:00 +7°C° 1 mm 4 m/s 733 mmHg 92%
    14:00 +7°C° 0,7 mm 4 m/s 733 mmHg 91%
    15:00 +7°C° 0,7 mm 4 m/s 733 mmHg 91%
    16:00 +7°C° 0,7 mm 4 m/s 733 mmHg 91%
    17:00 +7°C° 0,2 mm 4 m/s 733 mmHg 89%
    18:00 +7°C° 0,2 mm 4 m/s 733 mmHg 88%
    19:00 +7°C° 0,2 mm 5 m/s 733 mmHg 87%
    20:00 +7°C° 0 mm 5 m/s 733 mmHg 86%
    21:00 +6°C° 0 mm 5 m/s 733 mmHg 85%
    22:00 +6°C° 0 mm 5 m/s 733 mmHg 84%
    23:00 +6°C° 0 mm 5 m/s 733 mmHg 83%

    24 Februarie, Sâmbătă

    Timp Temperatura Precipitaţii Vânt Presiune Umiditate
    00:00 +5°C° 0 mm 5 m/s 733 mmHg 83%
    01:00 +5°C° 0 mm 5 m/s 733 mmHg 83%
    02:00 +4°C° 0 mm 6 m/s 732 mmHg 82%
    03:00 +4°C° 0 mm 6 m/s 732 mmHg 82%
    04:00 +4°C° 0 mm 6 m/s 732 mmHg 81%
    05:00 +4°C° 0 mm 7 m/s 732 mmHg 80%
    06:00 +4°C° 0 mm 7 m/s 731 mmHg 78%
    07:00 +5°C° 0 mm 8 m/s 731 mmHg 76%
    08:00 +5°C° 0 mm 7 m/s 732 mmHg 76%
    09:00 +7°C° 0 mm 6 m/s 732 mmHg 75%
    10:00 +8°C° 0 mm 5 m/s 732 mmHg 74%
    11:00 +8°C° 0,2 mm 4 m/s 732 mmHg 75%
    12:00 +8°C° 0,2 mm 4 m/s 732 mmHg 75%
    13:00 +9°C° 0,2 mm 3 m/s 732 mmHg 76%
    14:00 +9°C° 0,1 mm 3 m/s 732 mmHg 76%
    15:00 +8°C° 0,1 mm 3 m/s 732 mmHg 76%
    16:00 +8°C° 0,1 mm 3 m/s 732 mmHg 76%
    17:00 +6°C° 0 mm 4 m/s 732 mmHg 76%
    18:00 +5°C° 0 mm 4 m/s 732 mmHg 76%
    19:00 +4°C° 0 mm 4 m/s 733 mmHg 76%
    20:00 +2°C° 0 mm 5 m/s 733 mmHg 75%
    21:00 +1°C° 0 mm 5 m/s 733 mmHg 74%
    22:00 +1°C° 0 mm 5 m/s 733 mmHg 74%
    23:00 0°C° 0,1 mm 5 m/s 733 mmHg 74%

    25 Februarie, Duminică

    Timp Temperatura Precipitaţii Vânt Presiune Umiditate
    00:00 0°C° 0,1 mm 5 m/s 733 mmHg 74%
    01:00 -1°C° 0,1 mm 5 m/s 733 mmHg 74%
    02:00 -1°C° 0,1 mm 5 m/s 733 mmHg 74%
    03:00 -1°C° 0,1 mm 5 m/s 733 mmHg 73%
    04:00 -2°C° 0,1 mm 5 m/s 733 mmHg 73%
    05:00 -2°C° 0,1 mm 5 m/s 733 mmHg 74%
    06:00 -2°C° 0,1 mm 5 m/s 733 mmHg 74%
    07:00 -2°C° 0,1 mm 5 m/s 733 mmHg 75%
    08:00 -2°C° 0,5 mm 5 m/s 733 mmHg 78%
    09:00 -2°C° 0,5 mm 5 m/s 733 mmHg 82%
    10:00 -2°C° 0,5 mm 5 m/s 733 mmHg 85%
    11:00 -1°C° 0,5 mm 5 m/s 733 mmHg 86%
    12:00 -1°C° 0,5 mm 4 m/s 733 mmHg 86%
    13:00 -1°C° 0,5 mm 4 m/s 732 mmHg 87%
    14:00 0°C° 0,3 mm 4 m/s 732 mmHg 86%
    15:00 0°C° 0,3 mm 4 m/s 732 mmHg 86%
    16:00 0°C° 0,3 mm 4 m/s 732 mmHg 85%
    17:00 0°C° 0 mm 4 m/s 732 mmHg 85%
    18:00 -1°C° 0 mm 4 m/s 732 mmHg 84%
    19:00 -1°C° 0 mm 4 m/s 732 mmHg 83%
    20:00 -1°C° 0,4 mm 4 m/s 732 mmHg 84%
    21:00 -1°C° 0,4 mm 4 m/s 732 mmHg 85%
    22:00 -1°C° 0,4 mm 5 m/s 732 mmHg 86%
    23:00 -1°C° 1,2 mm 5 m/s 731 mmHg 88%
    Arată mai mult